Regional Weather Roundup
Issued by NWS Sioux Falls, SD

Home | Current Version | Previous Version | Text Only | Print | Product List | Glossary Off
Versions: 1 2 3 4 5 6 7 8 9 10 11 12 13 14 15 16 17 18 19 20 21 22 23 24 25 26 27 28 29 30 31 32 33 34 35 36 37 38 39 40 41 42 43 44 45 46 47 48 49 50

000
ASUS43 KFSD 271002
RWRFSD

WEATHER ROUNDUP FOR SE SOUTH DAKOTA/SW MINNESOTA/NW IOWA
NATIONAL WEATHER SERVICE SIOUX FALLS SD
500 AM CDT WED MAY 27 2015

NOTE: "FAIR" INDICATES FEW OR NO CLOUDS BELOW 12,000 FEET WITH NO
SIGNIFICANT WEATHER AND OR OBSTRUCTIONS TO VISIBILITY.


SDZ038>040-050-052>070-271100-
SOUTHEAST SOUTH DAKOTA

CITY           SKY/WX    TMP DP  RH WIND       PRES   REMARKS
BROOKINGS      CLEAR     54  48  82 CALM      29.93R
CHAMBERLAIN    CLEAR     52  48  88 W6        29.97S
HURON          CLEAR     53  48  83 W3        29.93R
MADISON        FAIR      55  52  88 W9        29.94R
MITCHELL       CLEAR     56  50  80 W9        29.95R
SIOUX FALLS    CLEAR     50  46  86 CALM      29.94R
WINNER         FAIR      59  45  59 SW7       29.99S
YANKTON        PTCLDY    54  48  82 CALM      29.96R
$$

MNZ071-072-080-081-089-090-097-098-271100-
SOUTHWEST MINNESOTA

CITY           SKY/WX    TMP DP  RH WIND       PRES   REMARKS
FAIRMONT       MOCLDY    55  50  82 W9        29.91R
JACKSON        PTCLDY    54  52  94 SW6       29.93R FOG
LUVERNE        CLEAR     54  48  82 CALM      29.94R
MARSHALL       CLEAR     54  46  76 W7        29.88S
MONTEVIDEO     CLEAR     55  52  88 W5        29.88R
REDWOOD FALLS  PTCLDY    54  51  90 SW7       29.87R
TRACY          CLEAR     59  52  78 W8        29.89S
WINDOM         PTCLDY    54  52  94 CALM      29.91R FOG
WORTHINGTON    PTCLDY    55  48  76 W12       29.93R
$$

IAZ001>003-012>014-020>022-031-032-NEZ013-014-SDZ071-271100-
NORTHWEST IOWA

CITY           SKY/WX    TMP DP  RH WIND       PRES   REMARKS
DENISON        PTCLDY    54  54 100 SW3       29.95R
ESTHERVILLE    PTCLDY    53  52  96 SW8       29.92R
SIOUX CITY     CLEAR     54  49  83 CALM      29.96R
SPENCER        PTCLDY    53  51  93 CALM      29.93R FOG
$$

ABBREVIATIONS USED IN REMARKS
   TC - TEMPERATURE IN CELSIUS
  WCI - WIND CHILL INDEX
   HX - HEAT INDEX
  VSB - VISIBILITY



USA.gov is the U.S. government's official web portal to all federal, state and local government web resources and services.